QPF
0.00 0.00 0.00 0.00 0.00 0.00 0.00 0.00 0.00 0.00 0.00 0.00 0.00 0.00 0.00 0.00 0.00 0.00 0.00 0.00 0.00 0.00 0.00 0.00 0.00 0.00 0.00 0.00 0.00 0.00 0.00 0.00 0.00 0.00 0.00 0.00 0.00 0.00 0.00 0.01 0.06 0.10 0.06 0.08
0.00 0.00 0.00 0.00 0.00 0.00 0.00 0.00 0.00 0.00 0.00 0.00 0.00 0.00 0.00 0.00 0.00 0.00 0.00 0.00 0.00 0.00 0.00 0.00 0.00 0.00 0.00 0.00 0.00 0.00 0.00 0.00 0.00 0.00 0.00 0.00 0.00 0.00 0.01 0.00 0.01 0.08 0.10 0.02
0.00 0.00 0.00 0.00 0.00 0.00 0.00 0.00 0.00 0.00 0.00 0.00 0.00 0.00 0.00 0.00 0.00 0.00 0.00 0.00 0.00 0.00 0.00 0.00 0.00 0.00 0.00 0.00 0.00 0.00 0.00 0.00 0.00 0.00 0.00 0.00 0.00 0.00 0.00 0.00 0.00 0.00 0.04 0.01
0.00 0.00 0.00 0.00 0.00 0.00 0.00 0.00 0.00 0.00 0.00 0.00 0.00 0.00 0.00 0.00 0.00 0.00 0.00 0.00 0.00 0.00 0.00 0.00 0.00 0.00 0.00 0.00 0.00 0.00 0.00 0.00 0.00 0.01 0.00 0.00 0.00 0.00 0.00 0.00 0.05 0.01 0.04 0.01
0.00 0.00 0.00 0.00 0.00 0.00 0.00 0.00 0.00 0.00 0.00 0.00 0.00 0.00 0.00 0.00 0.00 0.00 0.00 0.00 0.00 0.00 0.00 0.00 0.00 0.00 0.00 0.00 0.00 0.00 0.00 0.00 0.01 0.01 0.01 0.00 0.00 0.00 0.00 0.05 0.09 0.02 0.01 0.00
0.00 0.00 0.00 0.00 0.00 0.00 0.00 0.00 0.00 0.00 0.00 0.00 0.00 0.00 0.00 0.00 0.00 0.00 0.00 0.00 0.00 0.00 0.00 0.00 0.00 0.00 0.00 0.00 0.00 0.00 0.00 0.01 0.01 0.00 0.00 0.00 0.00 0.00 0.04 0.06 0.02 0.02 0.00 0.00
0.00 0.00 0.00 0.00 0.00 0.00 0.00 0.00 0.00 0.00 0.00 0.00 0.00 0.00 0.00 0.00 0.00 0.00 0.00 0.00 0.00 0.00 0.00 0.00 0.00 0.00 0.00 0.00 0.00 0.00 0.00 0.01 0.00 0.00 0.00 0.00 0.00 0.00 0.04 0.05 0.03 0.01 0.00 0.00
0.00 0.00 0.00 0.00 0.00 0.00 0.00 0.00 0.00 0.00 0.00 0.00 0.00 0.00 0.00 0.00 0.00 0.00 0.00 0.00 0.00 0.00 0.00 0.00 0.00 0.00 0.00 0.00 0.00 0.00 0.00 0.01 0.00 0.00 0.00 0.00 0.00 0.01 0.08 0.06 0.05 0.00 0.00 0.00
0.00 0.00 0.00 0.00 0.00 0.00 0.00 0.00 0.00 0.00 0.00 0.00 0.00 0.00 0.00 0.00 0.00 0.00 0.00 0.00 0.00 0.00 0.00 0.00 0.00 0.00 0.00 0.00 0.00 0.00 0.00 0.01 0.01 0.00 0.00 0.00 0.00 0.02 0.05 0.06 0.01 0.00 0.00 0.00
0.00 0.00 0.00 0.00 0.00 0.00 0.00 0.00 0.00 0.00 0.00 0.00 0.00 0.00 0.00 0.00 0.00 0.00 0.00 0.00 0.00 0.00 0.00 0.00 0.00 0.00 0.00 0.00 0.00 0.00 0.01 0.01 0.01 0.00 0.00 0.00 0.00 0.01 0.06 0.03 0.00 0.00 0.00 0.00
0.00 0.00 0.00 0.00 0.00 0.00 0.00 0.00 0.00 0.00 0.00 0.00 0.00 0.00 0.00 0.00 0.00 0.00 0.00 0.00 0.00 0.00 0.00 0.00 0.00 0.00 0.00 0.00 0.00 0.00 0.00 0.00 0.00 0.00 0.00 0.00 0.00 0.00 0.04 0.01 0.00 0.00 0.00 0.00
0.00 0.00 0.00 0.00 0.00 0.00 0.00 0.00 0.00 0.00 0.00 0.00 0.00 0.00 0.00 0.00 0.00 0.00 0.00 0.00 0.00 0.00 0.00 0.00 0.00 0.00 0.00 0.00 0.00 0.00 0.00 0.00 0.00 0.00 0.00 0.00 0.01 0.00 0.02 0.00 0.00 0.00 0.00 0.00
0.00 0.00 0.00 0.00 0.00 0.00 0.00 0.00 0.00 0.00 0.00 0.00 0.00 0.00 0.00 0.00 0.00 0.00 0.00 0.00 0.00 0.00 0.00 0.00 0.00 0.00 0.00 0.00 0.00 0.00 0.00 0.00 0.00 0.00 0.00 0.00 0.00 0.00 0.01 0.00 0.00 0.00 0.00 0.00
0.00 0.00 0.00 0.00 0.00 0.00 0.00 0.00 0.00 0.00 0.00 0.00 0.00 0.00 0.00 0.00 0.00 0.00 0.00 0.00 0.00 0.00 0.00 0.00 0.00 0.00 0.00 0.00 0.00 0.00 0.00 0.00 0.00 0.00 0.00 0.00 0.00 0.01 0.00 0.00 0.00 0.00 0.00 0.00
0.00 0.00 0.00 0.00 0.00 0.00 0.00 0.00 0.00 0.00 0.00 0.00 0.00 0.00 0.00 0.00 0.00 0.00 0.00 0.00 0.00 0.00 0.00 0.00 0.00 0.00 0.00 0.00 0.00 0.00 0.00 0.00 0.00 0.00 0.00 0.00 0.00 0.01 0.00 0.00 0.00 0.00 0.00 0.00
0.00 0.00 0.00 0.00 0.00 0.00 0.00 0.00 0.00 0.00 0.00 0.00 0.00 0.00 0.00 0.00 0.00 0.00 0.00 0.00 0.00 0.00 0.00 0.00 0.00 0.00 0.00 0.00 0.00 0.00 0.00 0.00 0.00 0.00 0.00 0.01 0.01 0.00 0.00 0.00 0.00 0.00 0.00 0.00
0.00 0.00 0.00 0.00 0.00 0.00 0.00 0.00 0.00 0.00 0.00 0.00 0.00 0.00 0.00 0.00 0.00 0.00 0.00 0.00 0.00 0.00 0.00 0.00 0.00 0.00 0.00 0.00 0.00 0.00 0.00 0.00 0.00 0.00 0.00 0.05 0.09 0.07 0.00 0.00 0.00 0.00 0.00 0.00
0.00 0.00 0.00 0.00 0.00 0.00 0.00 0.00 0.00 0.00 0.00 0.00 0.00 0.00 0.00 0.00 0.00 0.00 0.00 0.00 0.00 0.00 0.00 0.00 0.00 0.00 0.00 0.00 0.00 0.00 0.00 0.00 0.00 0.00 0.00 0.13 0.18 0.03 0.00 0.00 0.00 0.00 0.00 0.00
0.00 0.00 0.00 0.00 0.00 0.00 0.00 0.00 0.00 0.00 0.00 0.00 0.00 0.00 0.00 0.00 0.00 0.00 0.00 0.00 0.00 0.00 0.00 0.00 0.00 0.00 0.00 0.00 0.00 0.00 0.00 0.00 0.00 0.02 0.25 0.43 0.20 0.03 0.02 0.00 0.00 0.00 0.00 0.00
0.00 0.00 0.00 0.00 0.00 0.00 0.00 0.00 0.00 0.00 0.00 0.00 0.00 0.00 0.00 0.00 0.00 0.00 0.00 0.00 0.00 0.00 0.00 0.00 0.00 0.00 0.00 0.00 0.00 0.00 0.00 0.00 0.01 0.38 0.65 0.56 0.37 0.28 0.13 0.03 0.00 0.00 0.00 0.00
0.00 0.00 0.00 0.00 0.00 0.00 0.00 0.00 0.00 0.00 0.00 0.00 0.00 0.00 0.00 0.00 0.00 0.00 0.00 0.00 0.00 0.00 0.00 0.00 0.00 0.00 0.00 0.00 0.00 0.00 0.00 0.01 0.18 0.27 0.17 0.15 0.14 0.09 0.06 0.02 0.01 0.01 0.01 0.00
0.00 0.00 0.00 0.00 0.00 0.00 0.00 0.00 0.00 0.00 0.00 0.00 0.00 0.01 0.01 0.00 0.00 0.01 0.00 0.00 0.00 0.00 0.00 0.00 0.00 0.00 0.00 0.00 0.00 0.00 0.03 0.09 0.05 0.04 0.01 0.03 0.01 0.01 0.01 0.01 0.04 0.03 0.01 0.00
0.00 0.00 0.00 0.00 0.00 0.00 0.00 0.00 0.00 0.00 0.00 0.00 0.01 0.02 0.01 0.01 0.03 0.04 0.01 0.00 0.00 0.00 0.00 0.00 0.00 0.00 0.00 0.02 0.07 0.17 0.44 0.31 0.20 0.08 0.02 0.01 0.01 0.01 0.01 0.01 0.01 0.00 0.00 0.00
0.00 0.00 0.00 0.00 0.00 0.00 0.00 0.00 0.00 0.00 0.00 0.00 0.00 0.00 0.00 0.00 0.01 0.02 0.01 0.00 0.00 0.00 0.00 0.00 0.00 0.00 0.04 0.11 0.23 0.28 0.43 0.26 0.16 0.11 0.07 0.02 0.00 0.01 0.01 0.00 0.00 0.00 0.00 0.00
0.00 0.00 0.00 0.00 0.00 0.00 0.00 0.00 0.00 0.00 0.00 0.00 0.00 0.00 0.00 0.00 0.00 0.00 0.00 0.00 0.00 0.00 0.00 0.00 0.00 0.01 0.01 0.03 0.05 0.08 0.16 0.19 0.22 0.12 0.12 0.13 0.03 0.02 0.00 0.00 0.00 0.00 0.00 0.00
0.00 0.00 0.00 0.00 0.00 0.00 0.00 0.00 0.00 0.00 0.00 0.00 0.00 0.00 0.00 0.00 0.00 0.00 0.00 0.00 0.00 0.00 0.00 0.00 0.00 0.02 0.03 0.05 0.06 0.04 0.01 0.16 0.14 0.05 0.09 0.12 0.06 0.03 0.00 0.00 0.00 0.00 0.00 0.00
MSLP
1005.51 1005.98 1006.17 1006.63 1006.83 1006.91 1006.96 1006.84 1006.61 1005.74 1005.78 1006.41 1006.61 1006.88 1006.96 1007.28 1007.40 1007.63 1007.91 1008.12 1008.22 1008.32 1008.42 1008.56 1008.98 1009.35 1010.08 1010.82 1011.28 1011.66 1012.13 1012.44 1013.09 1013.73 1014.13 1014.35 1014.30 1014.29 1014.31 1014.17 1014.18 1014.46 1014.38 1014.48
1006.15 1005.85 1005.85 1005.96 1006.22 1006.60 1006.74 1006.75 1006.55 1005.92 1006.20 1006.89 1007.14 1006.76 1007.00 1006.96 1006.90 1007.06 1007.15 1007.39 1007.41 1007.56 1007.97 1008.44 1008.58 1008.94 1009.40 1009.85 1010.42 1011.19 1011.50 1012.03 1012.46 1012.97 1013.33 1013.66 1013.90 1014.07 1013.89 1013.67 1013.82 1013.88 1013.99 1014.17
1006.20 1005.62 1005.47 1005.74 1005.94 1006.07 1006.34 1006.63 1006.54 1006.46 1006.91 1007.32 1007.58 1006.87 1006.56 1006.53 1006.35 1006.51 1006.35 1006.25 1006.82 1007.05 1007.39 1007.79 1008.28 1008.51 1008.91 1009.48 1009.96 1010.45 1010.83 1011.29 1011.81 1012.42 1013.04 1013.55 1013.77 1013.86 1013.82 1013.74 1013.66 1013.80 1013.84 1013.99
1006.01 1005.29 1005.17 1005.36 1005.48 1005.73 1005.96 1006.10 1006.17 1007.09 1008.08 1008.85 1008.96 1008.51 1007.04 1006.77 1006.55 1006.41 1006.16 1006.22 1006.26 1006.45 1006.96 1007.30 1007.71 1008.23 1008.52 1008.66 1009.17 1009.63 1010.23 1010.82 1011.30 1011.93 1012.66 1013.13 1013.35 1013.72 1013.62 1013.64 1013.85 1013.79 1013.87 1013.93
1005.59 1005.19 1004.94 1004.93 1004.90 1005.20 1005.93 1006.03 1006.88 1008.16 1009.40 1009.88 1009.91 1009.89 1006.76 1006.66 1006.54 1005.89 1005.56 1005.50 1005.68 1005.91 1006.32 1006.64 1006.96 1007.22 1007.46 1008.07 1008.56 1009.02 1009.65 1010.29 1010.84 1011.42 1012.04 1012.71 1013.05 1013.26 1013.61 1013.77 1013.96 1014.21 1014.29 1014.16
1005.47 1004.94 1004.58 1004.24 1004.39 1004.88 1005.52 1007.00 1008.26 1009.53 1010.60 1011.09 1010.31 1010.19 1006.92 1005.81 1004.82 1004.76 1004.98 1005.04 1005.27 1005.62 1005.84 1006.00 1006.13 1006.65 1007.11 1007.56 1008.08 1008.75 1009.34 1009.86 1010.34 1011.16 1011.71 1012.22 1012.63 1012.97 1013.42 1013.89 1014.11 1014.29 1014.45 1014.49
1005.70 1004.81 1004.17 1003.94 1004.50 1005.08 1006.10 1008.03 1009.73 1011.02 1011.80 1011.54 1010.48 1010.18 1006.26 1004.86 1004.28 1003.95 1004.08 1004.19 1004.27 1004.56 1005.23 1005.64 1006.02 1006.43 1006.94 1007.41 1007.73 1008.28 1008.93 1009.67 1010.19 1010.70 1011.19 1011.72 1012.20 1012.60 1013.07 1013.60 1013.95 1014.17 1014.42 1014.54
1006.16 1005.14 1004.06 1003.64 1003.91 1004.55 1006.11 1007.38 1009.08 1010.59 1011.83 1011.15 1010.40 1008.79 1004.97 1003.84 1003.47 1003.25 1003.51 1003.60 1003.92 1004.22 1004.67 1005.07 1005.21 1005.58 1006.18 1006.71 1007.24 1007.86 1008.48 1009.23 1009.81 1010.20 1010.61 1011.09 1011.81 1012.30 1012.86 1013.37 1013.84 1013.95 1014.22 1014.40
1006.05 1005.23 1003.91 1003.30 1003.14 1003.77 1005.88 1007.02 1007.67 1009.87 1011.28 1010.93 1009.40 1007.57 1004.73 1003.51 1003.37 1003.42 1003.29 1003.53 1003.72 1003.85 1004.25 1004.52 1004.93 1005.15 1005.46 1005.96 1006.43 1007.05 1007.86 1008.58 1009.17 1009.49 1010.21 1010.75 1011.39 1011.98 1012.54 1013.11 1013.41 1013.78 1014.17 1014.45
1005.34 1005.43 1004.14 1003.43 1003.29 1003.93 1004.68 1005.86 1007.84 1009.38 1010.75 1010.81 1009.18 1007.75 1005.40 1003.90 1003.52 1003.47 1003.45 1003.32 1003.47 1003.69 1003.92 1004.06 1004.35 1004.48 1004.81 1005.28 1005.78 1006.55 1007.11 1007.71 1008.27 1008.80 1009.50 1010.27 1010.88 1011.44 1012.13 1012.73 1013.19 1013.64 1014.08 1014.50
1005.37 1005.73 1005.04 1004.07 1003.91 1004.18 1005.03 1005.83 1007.43 1008.72 1009.45 1009.76 1008.95 1007.01 1003.89 1003.19 1003.33 1003.17 1003.26 1003.14 1003.18 1003.41 1003.57 1003.66 1003.86 1003.99 1004.31 1004.80 1005.47 1006.09 1006.65 1007.14 1007.86 1008.42 1008.98 1009.72 1010.57 1011.15 1011.59 1012.30 1013.04 1013.51 1013.93 1014.36
1005.15 1005.66 1005.75 1004.90 1004.06 1004.04 1004.29 1005.13 1006.53 1008.35 1009.52 1009.49 1008.30 1005.52 1003.00 1002.50 1002.58 1002.93 1002.90 1002.84 1002.82 1003.04 1003.09 1003.19 1003.17 1003.39 1003.96 1004.45 1005.16 1005.68 1006.32 1006.66 1007.03 1007.80 1008.56 1009.19 1009.99 1010.87 1011.57 1012.23 1012.75 1013.24 1013.81 1014.16
1005.00 1005.75 1005.96 1005.46 1004.80 1004.28 1004.45 1005.03 1006.32 1007.08 1008.05 1008.85 1008.12 1005.37 1003.11 1002.86 1002.54 1001.87 1002.05 1002.60 1002.51 1002.43 1002.26 1002.73 1002.96 1003.28 1003.62 1004.08 1004.54 1005.14 1005.61 1006.22 1006.94 1007.62 1008.27 1008.90 1009.78 1010.58 1011.15 1011.70 1012.38 1012.95 1013.55 1014.06
1004.47 1005.77 1005.91 1005.52 1004.84 1004.52 1004.92 1005.24 1005.85 1006.66 1007.96 1008.53 1007.45 1005.67 1003.97 1003.55 1003.57 1003.11 1002.19 1001.35 1001.68 1002.03 1002.22 1002.43 1002.94 1003.15 1003.36 1003.61 1004.08 1004.62 1005.09 1005.58 1006.37 1007.08 1007.73 1008.53 1009.27 1009.68 1010.36 1011.30 1012.14 1012.75 1013.35 1014.06
1005.20 1006.33 1006.17 1005.51 1005.18 1005.17 1005.53 1005.76 1005.98 1006.54 1007.09 1007.48 1006.85 1006.43 1004.87 1005.00 1004.47 1003.82 1003.21 1002.59 1001.92 1001.26 1001.46 1001.89 1002.18 1002.60 1003.09 1003.51 1003.85 1004.39 1004.93 1005.39 1006.02 1006.77 1007.71 1008.44 1009.20 1009.79 1010.40 1011.22 1011.93 1012.63 1013.25 1013.91
1005.97 1006.60 1006.71 1006.55 1005.96 1005.84 1006.25 1006.34 1006.49 1006.88 1007.28 1007.28 1006.97 1006.36 1005.23 1004.90 1004.38 1003.58 1002.78 1002.58 1002.76 1002.13 1001.25 1001.41 1001.95 1001.97 1002.43 1003.17 1003.51 1004.17 1004.63 1005.01 1005.54 1006.44 1007.20 1008.12 1008.80 1009.33 1010.30 1011.39 1012.20 1012.98 1013.73 1014.30
1006.76 1007.26 1007.70 1007.48 1006.98 1006.71 1006.87 1006.78 1006.72 1007.28 1007.48 1007.71 1007.28 1006.20 1005.51 1004.63 1004.28 1003.31 1002.48 1001.96 1001.85 1001.85 1001.69 1001.55 1001.36 1001.44 1001.97 1002.47 1002.88 1003.36 1003.96 1004.62 1005.27 1006.05 1007.18 1008.10 1009.09 1009.74 1010.63 1011.71 1012.68 1013.23 1013.87 1014.41
1007.28 1007.97 1008.30 1008.45 1007.51 1007.54 1006.89 1006.60 1006.52 1006.75 1007.21 1007.33 1007.13 1006.48 1005.77 1005.13 1004.31 1003.60 1002.68 1001.88 1001.49 1001.15 1000.89 1000.86 1001.42 1001.73 1001.82 1002.22 1002.90 1003.41 1003.81 1004.58 1005.26 1006.19 1007.40 1008.33 1009.13 1009.77 1010.90 1011.97 1013.07 1014.19 1014.90 1015.26
1007.67 1007.98 1008.88 1009.06 1008.73 1008.15 1007.33 1006.68 1006.44 1006.68 1006.73 1006.55 1006.70 1006.28 1005.41 1004.41 1003.98 1003.03 1002.37 1001.90 1001.34 1000.75 1000.04 999.99 1000.32 1001.38 1001.84 1001.98 1002.65 1003.37 1004.18 1005.15 1006.11 1007.06 1008.00 1008.66 1009.25 1009.68 1011.02 1012.11 1013.03 1013.77 1014.53 1015.34
1008.11 1008.21 1008.73 1009.48 1009.00 1008.16 1006.70 1006.01 1006.12 1006.31 1006.50 1005.65 1006.14 1006.10 1005.47 1004.32 1004.53 1004.02 1002.69 1001.86 1001.06 1000.67 1000.13 999.79 1000.09 1000.85 1001.61 1002.34 1003.04 1003.94 1004.95 1005.55 1006.38 1007.21 1008.16 1008.48 1008.93 1007.72 1011.74 1012.01 1012.55 1013.51 1014.13 1014.83
1009.26 1009.41 1009.74 1009.72 1008.82 1007.55 1006.27 1006.14 1006.38 1006.29 1005.66 1005.03 1005.44 1005.51 1005.23 1005.06 1004.71 1003.82 1003.02 1002.10 1001.40 1000.77 1000.37 1000.45 1000.37 1000.77 1001.48 1002.38 1002.85 1003.71 1004.65 1005.37 1005.50 1005.84 1006.80 1007.09 1007.64 1008.19 1008.86 1010.26 1012.16 1013.12 1014.13 1014.97
1010.02 1010.24 1010.34 1010.01 1008.87 1007.56 1006.34 1006.63 1006.62 1005.67 1004.89 1004.69 1004.89 1005.09 1005.01 1004.56 1003.98 1003.59 1002.79 1002.07 1001.54 1001.34 1001.07 1001.48 1001.61 1001.85 1002.01 1002.38 1002.66 1003.27 1003.73 1004.58 1005.31 1006.24 1006.66 1006.88 1008.12 1009.45 1010.48 1011.32 1012.26 1013.27 1014.05 1014.64
1010.42 1009.92 1009.91 1009.73 1008.25 1006.97 1006.53 1006.34 1005.77 1005.62 1005.59 1005.26 1005.47 1005.42 1005.20 1005.17 1004.49 1003.86 1002.70 1001.97 1001.54 1001.90 1001.82 1002.15 1002.73 1002.66 1002.87 1002.86 1003.13 1004.51 1005.93 1005.23 1005.14 1006.76 1007.73 1007.74 1008.45 1009.66 1010.43 1011.45 1012.29 1013.39 1013.94 1014.23
1009.87 1009.84 1009.84 1009.29 1007.82 1007.16 1006.58 1006.24 1005.85 1005.47 1005.23 1004.90 1004.89 1004.97 1005.10 1004.88 1004.57 1003.87 1003.06 1001.73 1001.62 1002.11 1002.39 1002.51 1002.48 1002.96 1003.59 1003.72 1003.99 1004.92 1005.47 1006.06 1005.73 1008.37 1008.80 1008.79 1009.32 1009.76 1010.87 1011.73 1012.33 1012.81 1013.73 1013.87
1009.67 1009.69 1009.48 1008.91 1007.50 1006.61 1006.13 1006.00 1005.74 1005.24 1004.97 1004.77 1004.42 1004.68 1004.42 1004.28 1004.21 1003.85 1002.89 1002.07 1001.31 1002.25 1002.59 1002.48 1002.79 1003.32 1003.96 1004.11 1004.31 1004.58 1004.72 1004.38 1003.60 1006.77 1008.10 1009.32 1009.69 1010.11 1011.00 1011.81 1012.49 1013.07 1013.19 1013.12
1009.08 1008.67 1008.66 1007.91 1006.92 1006.93 1006.16 1005.61 1005.42 1005.24 1004.85 1004.20 1004.21 1004.18 1004.16 1004.00 1003.70 1003.37 1003.59 1003.59 1003.08 1003.45 1003.68 1002.85 1002.99 1003.64 1004.15 1004.47 1004.57 1005.32 1004.07 1004.28 1005.26 1006.28 1007.58 1009.15 1009.38 1010.68 1011.39 1011.82 1012.60 1012.94 1013.06 1013.23
Thickness
5815 5799 5786 5795 5798 5797 5796 5793 5788 5808 5815 5801 5797 5797 5802 5804 5805 5804 5804 5804 5803 5805 5812 5813 5810 5810 5805 5798 5794 5793 5790 5789 5785 5780 5776 5775 5774 5775 5775 5774 5773 5771 5771 5769
5797 5785 5806 5812 5808 5799 5794 5791 5791 5806 5812 5801 5793 5795 5801 5806 5809 5810 5809 5811 5813 5813 5810 5810 5812 5812 5809 5806 5801 5797 5797 5794 5791 5788 5785 5782 5780 5778 5779 5780 5778 5777 5775 5771
5784 5802 5815 5809 5802 5799 5794 5788 5791 5798 5803 5801 5795 5791 5800 5809 5815 5816 5818 5826 5820 5818 5815 5815 5812 5814 5814 5810 5806 5802 5802 5801 5799 5795 5789 5783 5781 5780 5779 5779 5779 5777 5776 5773
5794 5812 5810 5804 5801 5800 5786 5808 5812 5802 5783 5761 5782 5752 5788 5797 5800 5805 5812 5817 5821 5822 5821 5819 5816 5813 5813 5815 5815 5812 5809 5805 5803 5798 5791 5785 5780 5774 5778 5779 5778 5778 5775 5773
5791 5802 5804 5800 5806 5809 5798 5808 5803 5789 5768 5765 5766 5749 5783 5794 5788 5802 5813 5820 5822 5826 5827 5823 5822 5823 5824 5821 5818 5815 5811 5807 5803 5800 5795 5787 5781 5780 5779 5778 5775 5775 5773 5771
5796 5815 5815 5811 5817 5816 5817 5795 5780 5767 5753 5736 5761 5751 5778 5799 5813 5820 5821 5824 5824 5824 5826 5830 5832 5829 5825 5825 5822 5816 5809 5807 5805 5800 5794 5788 5783 5781 5777 5775 5773 5773 5770 5769
5787 5798 5815 5821 5804 5809 5794 5767 5727 5732 5727 5726 5753 5745 5787 5817 5822 5828 5828 5828 5830 5832 5829 5826 5826 5826 5823 5822 5823 5819 5812 5805 5805 5802 5797 5791 5787 5784 5780 5776 5774 5772 5769 5767
5755 5758 5801 5817 5807 5797 5783 5776 5736 5723 5718 5740 5750 5752 5802 5829 5836 5837 5838 5838 5836 5834 5833 5833 5835 5833 5829 5827 5826 5823 5816 5809 5806 5805 5800 5797 5789 5786 5781 5777 5772 5772 5770 5768
5748 5763 5806 5817 5821 5815 5789 5769 5786 5738 5733 5739 5755 5778 5817 5829 5828 5835 5840 5836 5836 5838 5837 5836 5837 5837 5835 5833 5831 5828 5821 5816 5811 5810 5804 5798 5791 5786 5782 5778 5776 5773 5770 5766
5776 5759 5797 5809 5817 5812 5803 5799 5763 5745 5732 5739 5749 5759 5776 5818 5827 5828 5832 5837 5840 5841 5841 5842 5842 5844 5843 5840 5836 5830 5827 5823 5818 5816 5810 5800 5793 5790 5785 5780 5776 5772 5768 5763
5773 5765 5773 5799 5795 5789 5783 5779 5766 5757 5747 5732 5737 5762 5814 5825 5829 5829 5834 5840 5843 5843 5844 5847 5847 5848 5848 5844 5839 5834 5831 5827 5821 5817 5811 5804 5794 5790 5786 5781 5775 5770 5766 5762
5775 5758 5748 5769 5798 5803 5802 5795 5771 5748 5754 5738 5744 5767 5839 5840 5840 5837 5838 5844 5846 5849 5849 5851 5853 5852 5848 5844 5839 5836 5832 5831 5829 5821 5813 5807 5798 5789 5784 5780 5776 5771 5765 5762
5775 5752 5736 5750 5771 5793 5792 5791 5773 5759 5752 5740 5742 5766 5833 5835 5842 5851 5849 5845 5847 5851 5858 5854 5852 5852 5850 5846 5842 5839 5838 5833 5828 5821 5813 5806 5797 5790 5786 5782 5776 5771 5765 5760
5780 5743 5749 5737 5763 5779 5777 5788 5782 5771 5748 5745 5752 5789 5815 5823 5822 5835 5845 5858 5857 5854 5856 5855 5851 5851 5851 5848 5845 5841 5840 5838 5831 5823 5815 5806 5799 5797 5791 5783 5775 5769 5763 5755
5768 5747 5759 5768 5775 5768 5768 5771 5780 5780 5771 5769 5782 5780 5805 5803 5809 5820 5832 5839 5847 5858 5860 5861 5858 5855 5853 5848 5846 5843 5840 5837 5830 5821 5811 5803 5797 5792 5787 5779 5772 5767 5760 5752
5759 5749 5753 5755 5763 5763 5755 5761 5764 5764 5764 5765 5772 5776 5805 5810 5814 5822 5831 5836 5834 5842 5856 5861 5859 5858 5855 5850 5848 5842 5838 5835 5831 5821 5812 5803 5796 5791 5782 5773 5766 5758 5751 5743
5749 5740 5732 5737 5745 5745 5742 5755 5757 5758 5761 5757 5763 5786 5797 5806 5811 5820 5832 5839 5839 5841 5847 5851 5857 5858 5856 5852 5849 5843 5839 5834 5828 5820 5808 5799 5789 5781 5773 5764 5755 5748 5742 5735
5737 5728 5718 5721 5734 5724 5747 5761 5765 5760 5761 5762 5767 5778 5792 5799 5808 5815 5829 5834 5837 5845 5851 5854 5852 5851 5853 5852 5846 5841 5837 5829 5822 5812 5800 5790 5781 5772 5763 5754 5743 5732 5725 5719
5730 5723 5708 5711 5703 5723 5738 5748 5750 5745 5751 5765 5765 5776 5791 5803 5808 5818 5828 5833 5839 5844 5856 5860 5859 5850 5847 5847 5842 5834 5826 5817 5807 5796 5786 5777 5763 5751 5743 5738 5732 5729 5723 5713
5716 5716 5716 5697 5708 5700 5730 5755 5760 5757 5728 5769 5766 5769 5779 5793 5779 5789 5819 5830 5839 5846 5851 5856 5856 5850 5843 5837 5831 5820 5810 5804 5795 5786 5776 5766 5765 5727 5730 5727 5726 5720 5714 5706
5691 5693 5694 5687 5697 5712 5739 5749 5752 5728 5738 5769 5768 5769 5775 5777 5784 5799 5810 5822 5834 5841 5844 5847 5848 5845 5838 5830 5826 5815 5805 5796 5795 5793 5782 5778 5771 5761 5752 5739 5721 5716 5702 5692
5683 5681 5679 5676 5690 5701 5741 5738 5730 5748 5764 5769 5767 5768 5771 5777 5786 5793 5805 5816 5824 5826 5831 5830 5828 5826 5825 5823 5820 5812 5806 5794 5788 5777 5772 5771 5762 5749 5737 5727 5716 5705 5691 5679
5672 5684 5682 5686 5694 5722 5732 5736 5745 5746 5749 5758 5754 5757 5759 5762 5770 5778 5794 5807 5813 5811 5815 5816 5812 5813 5812 5813 5812 5795 5776 5756 5754 5753 5752 5755 5750 5739 5732 5721 5711 5697 5685 5683
5686 5683 5681 5689 5709 5710 5719 5728 5735 5741 5745 5752 5755 5756 5756 5757 5762 5771 5784 5798 5800 5800 5800 5805 5809 5802 5795 5797 5792 5779 5775 5761 5757 5714 5730 5731 5731 5728 5720 5711 5703 5696 5685 5683
5683 5682 5680 5681 5701 5712 5721 5719 5726 5732 5738 5742 5750 5750 5753 5755 5756 5760 5775 5786 5795 5788 5789 5795 5795 5789 5783 5782 5778 5776 5770 5771 5774 5747 5732 5721 5717 5718 5713 5706 5696 5689 5686 5685
5681 5682 5675 5679 5702 5703 5710 5721 5724 5724 5728 5738 5740 5742 5746 5749 5751 5757 5759 5763 5771 5771 5770 5781 5784 5777 5772 5768 5767 5758 5770 5765 5757 5748 5735 5718 5715 5707 5701 5698 5689 5682 5681 5678